Location: Peebles
(55.6412°N, 3.1714°W)
Time: 22:58:52
(UTC+00:00)

Cosmos 2074 Rocket - Visible Passes

Search period start: 27 January 2022 00:00
Search period end: 06 February 2022 00:00
Orbit: 968 x 985 km, 82.9° (Epoch: 27 January)

Date Brightness Start Highest point End Pass type
(mag) Time Alt. Az. Time Alt. Az. Time Alt. Az.
27 Jan 6.5 02:48:37 10° ESE 02:51:46 14° ENE 02:54:56 10° NE visible
27 Jan 4.4 04:32:30 27° SSE 04:35:56 62° E 04:42:09 10° NNE visible
27 Jan 4.6 06:17:17 15° WSW 06:21:48 33° WNW 06:27:28 10° N visible
28 Jan 6.0 03:14:33 18° ESE 03:16:57 23° E 03:21:42 10° NNE visible
28 Jan 3.9 04:59:18 42° SSW 05:01:37 85° W 05:07:59 10° N visible
28 Jan 5.1 06:44:04 13° W 06:48:03 23° NW 06:52:56 10° N visible
28 Jan 6.6 17:30:01 10° NW 17:33:48 17° WNW 17:37:35 10° WSW visible
29 Jan 5.3 03:41:00 33° ESE 03:42:17 36° E 03:47:56 10° NNE visible
29 Jan 4.0 05:25:45 43° WSW 05:27:29 56° WNW 05:33:42 10° N visible
29 Jan 5.5 07:10:48 10° W 07:14:29 16° NW 07:18:10 10° N visible
30 Jan 6.6 02:22:31 12° E 02:23:45 13° ENE 02:26:20 10° NE visible
30 Jan 4.5 04:07:15 54° ESE 04:07:47 56° E 04:13:56 10° NNE visible
30 Jan 4.5 05:51:58 32° W 05:53:32 37° WNW 05:59:20 10° N visible
31 Jan 6.1 02:48:38 21° E 02:48:53 21° ENE 02:53:21 10° NNE visible
31 Jan 3.9 04:33:21 86° SE 04:33:27 87° E 04:39:48 10° NNE visible
31 Jan 5.0 06:18:04 22° W 06:19:44 25° WNW 06:24:50 10° N visible
01 Feb 5.5 03:14:39 32° ENE 03:14:39 32° ENE 03:19:41 10° NNE visible
01 Feb 3.9 04:59:21 62° WNW 04:59:21 62° WNW 05:05:33 10° N visible
01 Feb 5.4 06:44:04 15° WNW 06:46:08 17° NW 06:50:09 10° N visible
01 Feb 6.8 17:29:02 10° NW 17:30:52 11° WNW 17:32:42 10° W visible
02 Feb 6.6 01:55:52 11° ENE 01:55:52 11° ENE 01:57:34 10° NE visible
02 Feb 4.8 03:40:34 47° ENE 03:40:34 47° ENE 03:45:43 10° NNE visible
02 Feb 4.4 05:25:16 40° WNW 05:25:16 40° WNW 05:31:12 10° N visible
02 Feb 5.7 07:10:29 10° WNW 07:12:42 12° NW 07:14:56 10° NNW visible
03 Feb 6.2 02:21:44 18° ENE 02:21:44 18° ENE 02:24:59 10° NE visible
03 Feb 4.3 04:06:26 61° NNE 04:06:26 61° NNE 04:11:37 10° NNE visible
03 Feb 4.9 05:51:09 27° WNW 05:51:26 27° WNW 05:56:45 10° N visible
04 Feb 5.8 02:47:34 27° ENE 02:47:34 27° ENE 02:51:24 10° NNE visible
04 Feb 4.2 04:32:16 56° NNW 04:32:16 56° NNW 04:37:24 10° N visible
04 Feb 5.3 06:16:58 18° WNW 06:17:47 19° NW 06:22:07 10° N visible
05 Feb 5.3 03:13:21 36° NE 03:13:21 36° NE 03:17:30 10° NNE visible
05 Feb 4.5 04:58:03 41° NW 04:58:03 41° NW 05:03:04 10° N visible
05 Feb 5.6 06:42:45 12° WNW 06:44:19 13° NW 06:47:06 10° NNW visible
